www.pogodaiklimat.ru

Погода и климат >> Архив погоды >> Россия >> Свердловская область >> Гари


ПОГОДА в Гарях

  • Прогноз погоды в Гарях
  • Монитор погоды в Гарях

АРХИВ ПОГОДЫ в Гарях

Время (UTC), дата Ветер
(напр.,м/с)
 
Видим.   Явления Облачность Т
(С)
Тd
(С)
f
(%)
Тe
(С)
Тes
(С)
Комфортность P
(гПа)
Po
(гПа)
Тmin
(С)
Tmax
(С)
R
(мм)
R24
(мм)
S
(см)
15 19.03 Ю 4 10 км 4/0
[Ac trans]
+5.1 -10.2 32 +2 +2 1026.1 1009.8 +7.5
18 19.03 Ю 6 10 км ясно -0.8 -9.9 50 -7 -7 1026.2 1009.6
21 19.03 ЮВ 6 10 км ясно -2.4 -10.2 55 -9 -9 1025.4 1008.6
00 20.03 Ю 7 10 км ясно -3.8 -10.5 60 -11 -11 1024.0 1007.1
03 20.03 Ю 6 50 км 4/0
[Ac trans]
-5.2 -11.1 63 -13 -12 1023.1 1006.2 -5.2 40
06 20.03 Ю 5 50 км 6/0
[Ci fib]
-0.1 -8.3 54 -6 -3 1021.5 1004.9
09 20.03 Ю 5 50 км 6/0
[Ci fib]
+6.8 -7.9 34 +4 +6 1019.2 1002.9
12 20.03 Ю 6-10
{11}
50 км 6/0
[Ci fib]
-7.8 -12.0 72 -16 -15 1017.4 1001.4
15 20.03 Ю 7
{10}
10 км 6/0
[Ac trans]
+4.9 -8.5 37 0 0 1016.6 1000.4 +7.8
18 20.03 Ю 5 10 км 6/0
[Ac trans]
+3.3 -7.0 47 -1 -1 1016.1 999.9
21 20.03 Ю 3 10 км 8/0
[Ac und]
+2.1 -5.8 56 -2 -2 1016.1 999.7
00 21.03 ЮЗ 3 10 км 8/0
[Ac und]
+2.5 -4.1 62 -1 -1 1015.6 999.4
03 21.03 Ю 2 50 км 9/0
[Ac As]
+1.7 -1.4 80 -2 -1 1015.4 999.0 +1.7 38
06 21.03 Ю 3 50 км 10/0
[As trans]
+2.9 -1.3 74 -1 +1 1014.9 998.7 +1.5
09 21.03 Ю 3 10 км слаб. снег 10/0
[As op]
+1.2 -0.2 90 -3 -2 1015.1 998.7
12 21.03 Ю 4 50 км {снег} 3/3 600 м
[Sc]
+3.1 -0.4 78 -1 -1 1014.5 998.3
15 21.03 ЮВ 3 10 км 1/0
[Ac trans]
+0.5 -1.2 88 -4 -4 1015.3 998.9 +3.2 0.9
18 21.03 ЮВ 4 10 км 3/0
[Ci fib]
-1.3 -2.7 90 -7 -7 1016.3 999.8
21 21.03 Ю 3 500 м туман ?/? -1.8 -2.9 92 -7 -7 1016.6 1000.0
03 22.03 ЮВ 2 500 м туман ясно -3.2 -4.3 92 -7 -7 1016.9 1000.3 -3.3 37
06 22.03 Ю 2 20 км {туман} 8/0
[Ac und]
-0.8 -1.7 94 -5 -3 1016.7 1000.2
09 22.03 Ю 2 50 км 3/3 600 м
[Sc]
+3.6 -4.5 55 +1 +5 1015.6 999.4
12 22.03 Ю 3 50 км 6/3 600 м
[Cu med, cong Ac und Ci fib]
+4.8 -5.1 49 +2 +3 1014.6 998.5
15 22.03 Ю 4 10 км 8/0
[Ac und]
+1.4 -3.1 72 -3 -3 1015.3 998.9 +5.4
18 22.03 ЮВ 3 10 км 8/0
[Ac und]
-0.2 -2.3 86 -5 -5 1015.9 999.4
21 22.03 ЮВ 2 10 км 10/0
[Ac und]
-0.8 -2.6 88 -5 -5 1015.8 999.3
00 23.03 СВ 1 10 км слаб. ливневой снег 10/10 600 м
[Cb cap]
+0.8 -1.2 86 -1 -1 1015.6 999.2
03 23.03 С 3 500 м слаб. ливневой снег {туман} ?/? +0.2 -0.6 94 -5 -5 1016.2 999.7 -0.8 2 37
06 23.03 С 2 500 м туман {ливн. осадки} ?/? 0.0 0.0 100 -3 -3 1017.8 1001.3
09 23.03 СЗ 4 50 км {туман} 6/6 600 м
[Cu med, cong]
+3.9 -3.3 59 -0 +2 1018.0 1001.8
12 23.03 С 4 50 км {туман} 8/8 600 м
[Cb calv]
+3.7 -8.7 40 0 0 1018.6 1002.4
15 23.03 СЗ 1 20 км 6/0
[Ac lent]
+3.5 -10.6 35 +3 +3 1019.4 1003.2 +3.9 0.4
18 23.03 СЗ 2 10 км 6/0
[Ac trans]
+1.6 -10.3 41 -1 -1 1020.6 1004.2
21 23.03 СЗ 1 10 км 8/0
[Ac trans]
-0.8 -11.3 45 -2 -2 1021.1 1004.5
00 24.03 штиль 0 10 км 6/0
[Ac trans]
-1.2 -10.1 51 -2 -2 1021.1 1004.5
03 24.03 ЮВ 2 50 км 6/0
[Ac trans]
-2.8 -9.9 58 -6 -6 1021.0 1004.3 -4.0 37
06 24.03 Ю 1 50 км 4/0
[Ac trans]
+2.5 -6.5 51 +2 +6 1020.7 1004.3
09 24.03 Ю 3 50 км 6/0
[Ac trans]
+6.4 -7.4 37 +4 +7 1019.4 1003.2
12 24.03 Ю 5 50 км 4/0
[Ac trans]
+5.2 -7.6 39 +1 +2 1017.5 1001.4
15 24.03 Ю 4 20 км 6/0
[Ac und]
+3.9 -4.8 53 0 0 1016.8 1000.5 +6.4
18 24.03 Ю 5 10 км 4/0
[Ac trans]
+1.9 -2.1 75 -3 -3 1016.2 999.8
21 24.03 Ю 4 10 км 6/0
[Ac und]
+1.7 -1.4 80 -3 -3 1016.0 999.6
00 25.03 ЮВ 4 10 км 8/0
[Ac und]
+1.2 -1.7 81 -4 -4 1015.8 999.4
03 25.03 ЮВ 3 50 км 3/0
[Ac trans]
-2.3 -4.2 87 -7 -7 1016.8 1000.2 -2.7 36
06 25.03 Ю 6-10
{10}
50 км 4/1 300 м
[Cu hum Ci fib]
+2.5 -3.8 63 -3 -1 1015.4 999.2
09 25.03 Ю 5
{10}
50 км 6/0
[Cs]
+5.5 -3.3 53 +2 +4 1013.4 997.4
12 25.03 ЮВ 8-11
{14}
50 км 10/0
[Ac As]
+6.4 -3.8 48 +2 +2 1010.4 994.4
15 25.03 ЮВ 11-16
{16}
20 км 10/3 600 м
[Cb cap Ac As]
+6.5 -3.7 48 +1 +1 1006.6 990.7 +7.0
18 25.03 Ю 14-21
{22}
10 км слаб. ливневой дождь 10/10 600 м
[Cb cap]
+5.5 -2.2 58 -1 -1 1004.4 988.4
21 25.03 ЮВ 10-14
{22}
10 км слаб. ливневой дождь 9/9 600 м
[Cb cap]
+1.9 -0.9 82 -6 -6 1003.2 987.1
00 26.03 Ю 7-12
{14}
10 км в посл. час ливневой снег 10/10 600 м
[Cb cap]
+0.2 -1.8 86 -7 -7 1001.9 985.7
03 26.03 Ю 7-11
{14}
10 км слаб. ливневой снег 10/4 600 м
[Cb cap Ac und]
-0.2 -2.3 86 -7 -7 1001.2 985.0 -0.2 3 31
06 26.03 Ю 8-13
{13}
50 км {ливн. осадки} 9/3 600 м
[Sc Ac und]
+0.8 -3.8 71 -6 -6 1000.2 984.1
09 26.03 Ю 8-15
{16}
50 км в посл. час ливневой снег 9/9 600 м
[Cb calv]
+2.4 -4.3 61 -4 -4 1000.0 983.9
12 26.03 Ю 7-11
{15}
50 км {ливн. осадки} 8/3 600 м
[Cb calv Ac und]
+3.3 -3.4 61 -2 -2 1001.8 985.8

 

Местоположение метеостанции Гари (Свердловская область, Россия): широта 59.43 долгота 62.33 высота над уровнем моря 131 м.

В архиве по умолчанию представлена погода в Гарях за последнюю неделю. Архивные данные за месяц целиком и за предыдущие месяцы, начиная с января 2011 года, Вы можете получить, выбрав интересующий диапазон дат из раскрывающегося списка и нажав кнопку "Ввод!".


*Определитесь, кто Вы:
робот инопланетянин человек

Внимание! Время в таблицах - всемирное. Для получения местного времени необходимо прибавить поправку, которая равна 5 ч.

Смотрите также архив погоды в соседних городах и на ближайших метеорологических станциях:

Погода в Серове (Свердловская область, Россия) (103 км)
Погода в Верхотурье (Свердловская область, Россия) (108 км)
Погода в Карпинске (Свердловская область, Россия) (136 км)
Погода в Шаиме (Ханты-Мансийский АО, Россия) (145 км)
Погода в Североуральске (Свердловская область, Россия) (159 км)
Погода в Таборах (Свердловская область, Россия) (160 км)
Погода в Туринске (Свердловская область, Россия) (172 км)
Погода в Ивделе (Свердловская область, Россия) (174 км)
Погода в Кытлыме (Свердловская область, Россия) (176 км)
Погода в Алапаевске (Свердловская область, Россия) (177 км)

Пояснения к столбцам:

Ветер - указаны скорость ветра в м/с - средняя за 10 мин, порывы в срок и между сроками (в фигурных скобках) и направление, откуда дует ветер: С - северный, СВ - северо-восточный, В - восточный, ЮВ - юго-восточный, Ю - южный, ЮЗ - юго-западный, З - западный, СЗ - северо-западный.
Видимость - горизонтальная дальность видимости в метрах или километрах. При видимости от 1 до 10 км при отсутствии осадков обычно наблюдается дымка, при ухудшении видимости до 1 км и менее - туман. В сухую погоду видимость может ухудшаться дымом, пылью или мглою.
Явления - указаны атмосферные явления, наблюдавшиеся в срок или в последний час перед сроком; фигурными скобками обозначены явления, наблюдавшиеся между сроками (за 1-3 часа до срока); квадратными скобками обозначены град или гололедные отложения с указанием их диаметра в мм.
Облачность - указаны через наклонную черту общая и нижняя облачность в баллах и высота нижней границы облаков в метрах; квадратными скобками обозначены формы облаков: Ci - перистые, Cs - перисто-слоистые, Cc - перисто-кучевые, Ac - высококучевые, As - высокослоистые, Sc - слоисто-кучевые, Ns - слоисто-дождевые, Cu - кучевые, Cb - кучево-дождевые. Подробнее классификацию облаков см. в Атласе облаков (PDF).
T - Температура воздуха - температура, измеренная на высоте 2 м над землей.
Td - Температура точки росы - температура, при понижении до которой содержащийся в воздухе водяной пар достигнет насыщения.
f - Относительная влажность воздуха - влажноcть воздуха, измеренная на высоте 2 м над землей.
Te - Эффективная температура - температура, которую ощущает одетый по сезону человек в тени. Характеристика душности погоды. При расчете учитывается влияние влажности воздуха и скорости ветра на теплоощущения человека.
Tes - Эффективная температура на солнце - температура, которую ощущает человек, с поправкой на солнечный нагрев. Характеристика знойности погоды. Зависит от высоты солнца над горизонтом, облачности и скорости ветра. Ночью, в пасмурную погоду, а также при ветре 12 м/с и более поправка равна нулю.
P - Атмосферное давление - приведенное к уровню моря атмосферное давление.
Po - Атмосферное давление - измеренное на уровне метеостанции атмосферное давление.
Tmin - Минимальная температура - минимум температуры воздуха на высоте 2 м над землей.
Tmax - Максимальная температура - максимум температуры воздуха на высоте 2 м над землей.
R - Количество осадков - Количество выпавших осадков за период времени, мм. При наведении курсора мыши на число - период времени, за который выпало указанное количество осадков.
R24 - Количество осадков - Количество выпавших осадков за 24 часа, мм.
S - Снежный покров - Высота снежного покрова, см. При наведении курсора мыши на число - состояние снежного покрова и степень покрытия местности в баллах.